This is the latest recevied weather packets stored in our database for station/object KD8DLP-13. If no packets are shown the sender has not sent any weather packets the latest 10 day(s).
| Time | Temp. | Humidity | Pressure | Rain* | Wind** | Luminosity | Snow |
|---|---|---|---|---|---|---|---|
| 1777480748 | 8.89° C | 95% | 1013.7 hPa | 1.78 mm | - | 53 W/m² | - |
| 1777480444 | 8.89° C | 94% | 1013.7 hPa | 1.27 mm | - | 68 W/m² | - |
| 1777480140 | 8.89° C | 94% | 1013.6 hPa | 3.05 mm | - | 70 W/m² | - |
| 1777479836 | 8.89° C | 94% | 1013.4 hPa | 3.05 mm | - | 57 W/m² | - |
| 1777479534 | 8.89° C | 94% | 1013.7 hPa | 3.05 mm | - | 53 W/m² | - |
| 1777479231 | 9.44° C | 94% | 1013.5 hPa | 3.56 mm | - | 63 W/m² | - |
| 1777478927 | 9.44° C | 93% | 1013.4 hPa | 3.05 mm | - | 44 W/m² | - |
| 1777478624 | 9.44° C | 93% | 1013.5 hPa | 1.27 mm | - | 30 W/m² | - |
| 1777478321 | 10° C | 93% | 1013.6 hPa | 0 mm | - | 45 W/m² | - |
| 1777478018 | 10° C | 92% | 1013.4 hPa | 1.78 mm | - | 80 W/m² | - |
| 1777477712 | 10° C | 92% | 1013.5 hPa | 1.78 mm | - | 91 W/m² | - |
| 1777477410 | 10° C | 92% | 1013.6 hPa | 0 mm | - | 82 W/m² | - |
| 1777477106 | 10.56° C | 92% | 1013.4 hPa | 1.27 mm | - | 115 W/m² | - |
| 1777476804 | 10.56° C | 92% | 1013.5 hPa | 1.27 mm | - | 128 W/m² | - |
| 1777476501 | 10.56° C | 92% | 1013.4 hPa | 0 mm | - | 144 W/m² | - |
| 1777476197 | 10.56° C | 91% | 1013.4 hPa | 1.78 mm | - | 136 W/m² | - |
| 1777475893 | 10.56° C | 91% | 1013.4 hPa | 1.78 mm | - | 142 W/m² | - |
| 1777475589 | 10.56° C | 90% | 1013.5 hPa | 1.27 mm | - | 122 W/m² | - |
| 1777475285 | 10.56° C | 90% | 1013.6 hPa | 1.27 mm | - | 106 W/m² | - |
| 1777474981 | 10.56° C | 90% | 1013.6 hPa | 0 mm | - | 108 W/m² | - |
| 1777474677 | 10.56° C | 89% | 1013.7 hPa | 0 mm | - | 124 W/m² | - |
| 1777474374 | 10.56° C | 89% | 1013.4 hPa | 0 mm | - | 133 W/m² | - |
| 1777474069 | 10.56° C | 89% | 1013.6 hPa | 0 mm | - | 143 W/m² | - |
| 1777473768 | 10.56° C | 89% | 1013.6 hPa | 1.78 mm | - | 162 W/m² | - |
| 1777473464 | 10.56° C | 89% | 1013.4 hPa | 1.78 mm | - | 167 W/m² | - |
* Rain latest hour (hover to see other rain measurements)
** Current wind speed in m/s (hover to see current wind gust speed)